| time (UTC) | temp F | wind direction | speed knots | gust knots | rain 1hr in | rain 24hr in | rain mn in | humidity % | barometer mb |
| 20260505011554 | 66 | 360 | 7.0 | 11.3 | 0.00 | 0.00 | 0.00 | 37 | 999.5 |
| 20260505010032 | 67 | 360 | 7.8 | 18.2 | 0.00 | 0.00 | 0.00 | 36 | 999.6 |
| 20260505004550 | 69 | 360 | 7.0 | 14.8 | 0.00 | 0.00 | 0.00 | 34 | 999.2 |
| 20260505003034 | 71 | 360 | 7.8 | 14.8 | 0.00 | 0.00 | 0.00 | 30 | 998.9 |
| 20260505001550 | 70 | 360 | 8.7 | 17.4 | 0.00 | 0.00 | 0.00 | 33 | 999.2 |
| 20260505000032 | 72 | 360 | 7.0 | 14.8 | 0.00 | 0.00 | 0.00 | 31 | 998.8 |
| 20260504234548 | 76 | 360 | 6.1 | 9.6 | 0.00 | 0.00 | 0.00 | 19 | 998.5 |
| 20260504233057 | 76 | 360 | 7.0 | 11.3 | 0.00 | 0.00 | 0.00 | 19 | 998.2 |
| 20260504231511 | 77 | 360 | 5.2 | 7.8 | 0.00 | 0.00 | 0.00 | 18 | 998.1 |
| 20260504230032 | 78 | 360 | 2.6 | 4.3 | 0.00 | 0.00 | 0.00 | 16 | 997.7 |
| 20260504224511 | 79 | 360 | 3.5 | 7.8 | 0.00 | 0.00 | 0.00 | 15 | 997.4 |
| 20260504223036 | 80 | 360 | 2.6 | 8.7 | 0.00 | 0.00 | 0.00 | 15 | 997.4 |
| 20260504221515 | 80 | 360 | 1.7 | 7.0 | 0.00 | 0.00 | 0.00 | 15 | 997.6 |
| 20260504220038 | 81 | 360 | 0.9 | 7.8 | 0.00 | 0.00 | 0.00 | 14 | 997.6 |
| 20260504214515 | 80 | 360 | 0.9 | 7.8 | 0.00 | 0.00 | 0.00 | 14 | 997.8 |
| 20260504213113 | 80 | 360 | 0.9 | 5.2 | 0.00 | 0.00 | 0.00 | 14 | 998.0 |
| 20260504211521 | 82 | 360 | 1.7 | 7.8 | 0.00 | 0.00 | 0.00 | 14 | 998.1 |
| 20260504210101 | 84 | 360 | 4.3 | 7.8 | 0.00 | 0.00 | 0.00 | 14 | 998.2 |
| 20260504204553 | 83 | 360 | 6.1 | 8.7 | 0.00 | 0.00 | 0.00 | 13 | 998.5 |
| 20260504203051 | 83 | 360 | 0.9 | 4.3 | 0.00 | 0.00 | 0.00 | 14 | 998.6 |
| 20260504201533 | 83 | 360 | 1.7 | 5.2 | 0.00 | 0.00 | 0.00 | 16 | 998.7 |
| 20260504200012 | 83 | 360 | 1.7 | 7.8 | 0.00 | 0.00 | 0.00 | 15 | 999.1 |
| 20260504194548 | 83 | 360 | 0.9 | 3.5 | 0.00 | 0.00 | 0.00 | 17 | 999.2 |
| 20260504193012 | 82 | 360 | 2.6 | 8.7 | 0.00 | 0.00 | 0.00 | 16 | 999.3 |
| 20260504191543 | 81 | 360 | 0.9 | 5.2 | 0.00 | 0.00 | 0.00 | 18 | 999.6 |
| 20260504190029 | 81 | 360 | 4.3 | 10.4 | 0.00 | 0.00 | 0.00 | 19 | 999.8 |
| 20260504184509 | 80 | 360 | 1.7 | 7.0 | 0.00 | 0.00 | 0.00 | 20 | 1000.1 |
| 20260504183029 | 80 | 360 | 2.6 | 7.0 | 0.00 | 0.00 | 0.00 | 20 | 1000.2 |
| 20260504181511 | 80 | 360 | 1.7 | 7.8 | 0.00 | 0.00 | 0.00 | 21 | 1000.4 |
| 20260504180048 | 80 | 360 | 2.6 | 7.8 | 0.00 | 0.00 | 0.00 | 23 | 1000.5 |
| 20260504174521 | 79 | 360 | 2.6 | 7.8 | 0.00 | 0.00 | 0.00 | 24 | 1001.1 |
| 20260504173042 | 79 | 360 | 3.5 | 8.7 | 0.00 | 0.00 | 0.00 | 24 | 1001.2 |
| 20260504171544 | 78 | 360 | 4.3 | 7.8 | 0.00 | 0.00 | 0.00 | 24 | 1001.3 |
| 20260504081533 | 44 | 360 | 0.0 | 0.9 | 0.00 | 0.00 | 0.00 | 66 | 1002.6 |
| 20260504044546 | 56 | 360 | 1.7 | 3.5 | 0.00 | 0.00 | 0.00 | 43 | 1003.6 |
| 20260504043034 | 56 | 360 | 2.6 | 4.3 | 0.00 | 0.00 | 0.00 | 43 | 1003.6 |
| 20260504041545 | 55 | 360 | 0.0 | 2.6 | 0.00 | 0.00 | 0.00 | 44 | 1003.8 |
| 20260504040031 | 55 | 360 | 1.7 | 2.6 | 0.00 | 0.00 | 0.00 | 44 | 1003.9 |
| 20260504034552 | 56 | 360 | 0.9 | 3.5 | 0.00 | 0.00 | 0.00 | 44 | 1004.0 |
| 20260504033032 | 58 | 360 | 0.0 | 3.5 | 0.00 | 0.00 | 0.00 | 40 | 1004.1 |
| 20260504031514 | 58 | 360 | 0.9 | 3.5 | 0.00 | 0.00 | 0.00 | 38 | 1004.1 |
| 20260504030036 | 60 | 360 | 0.9 | 3.5 | 0.00 | 0.00 | 0.00 | 36 | 1004.0 |
| 20260504024555 | 61 | 360 | 1.7 | 3.5 | 0.00 | 0.00 | 0.00 | 34 | 1003.8 |
| 20260504023038 | 62 | 360 | 2.6 | 5.2 | 0.00 | 0.00 | 0.00 | 32 | 1003.7 |
| 20260504021557 | 64 | 360 | 0.0 | 3.5 | 0.00 | 0.00 | 0.00 | 30 | 1003.6 |
| 20260504020117 | 66 | 360 | 0.0 | 0.9 | 0.00 | 0.00 | 0.00 | 29 | 1003.3 |
| 20260504014610 | 68 | 360 | 0.0 | 0.9 | 0.00 | 0.00 | 0.00 | 29 | 1003.3 |
| 20260504014502 | 68 | 360 | 0.0 | 0.9 | 0.00 | 0.00 | 0.00 | 30 | 1003.3 |
| 20260504013058 | 70 | 360 | 0.0 | 1.7 | 0.00 | 0.00 | 0.00 | 27 | 1003.1 |